Weather History for Chesapeake, VA

Change the Weather History Date:

Wednesday, October 3, 2012

  Actual Average (KORF) Record (KORF)
Temperature  
Mean Temperature 80 °F 66 °F  
Max Temperature 87 °F 74 °F 92 °F (1986)
Min Temperature 73 °F 59 °F 42 °F (1947)
Degree Days  
Heating Degree Days 0 2  
Month to date heating degree days 6  
Since 1 July heating degree days 17  
Cooling Degree Days 15 3  
Month to date cooling degree days 11  
Year to date cooling degree days 1576  
Growing Degree Days 30 (Base 50)    
Moisture  
Dew Point 74 °F    
Average Humidity 88    
Maximum Humidity 100    
Minimum Humidity 62    
Precipitation  
Precipitation 0.01 in 0.11 in 3.30 in (1962)
Month to date precipitation 0.32  
Year to date precipitation 37.02  
Snow  
Snow 0.00 in 0.00 in 0.00 in (2002)
Month to date snowfall 0.0  
Since 1 July snowfall 0.0  
Snow Depth -    
Sea Level Pressure  
Sea Level Pressure 30.08 in    
Wind  
Wind Speed 5 mph (SSW)    
Max Wind Speed 9 mph    
Max Gust Speed -    
Visibility 8 miles    
Events Rain    
T = Trace of Precipitation, MM = Missing Value Source: NWS Daily Summary

Daily Weather History Graph

Daily Weather History Graph

Search for Another Location

Airport:

Trip Planner

Search our weather history database for the weather conditions in past years. The results will help you decide how hot, cold, wet, or windy it might be!

Date:

Astronomy

Oct. 03, 2012 Rise Set
Actual Time 7:02 AM EDT 6:45 PM EDT
Civil Twilight 6:36 AM EDT 7:10 PM EDT
Nautical Twilight 6:06 AM EDT 7:40 PM EDT
Astronomical Twilight 5:36 AM EDT 8:10 PM EDT
Moon 8:42 PM EDT (10/3) 10:17 AM EDT (10/3)
Length of Visible Light 12h 34m
Length of Day
11h 42m
Waning Gibbous, 89% of the Moon is Illuminated
Oct 3
Waning Gibbous
Oct 8
Last Quarter
Oct 15
New
Oct 21
First Quarter
Oct 29
Full

Hourly Weather History & Observations

Time (EDT) Temp. Heat Index Dew Point Humidity Pressure Visibility Wind Dir Wind Speed Gust Speed Precip Events Conditions
12:15 AM 75.2 °F - 73.4 °F 94% 29.99 in 7.0 mi South 5.8 mph - N/A   Overcast
12:35 AM 75.2 °F - 73.4 °F 94% 29.99 in 7.0 mi South 5.8 mph - N/A   Overcast
12:55 AM 75.2 °F - 73.4 °F 94% 29.99 in 7.0 mi South 6.9 mph - N/A   Overcast
1:15 AM 75.2 °F - 73.4 °F 94% 30.00 in 7.0 mi South 6.9 mph - N/A   Overcast
1:35 AM 75.2 °F - 73.4 °F 94% 30.00 in 10.0 mi South 9.2 mph - N/A   Overcast
1:55 AM 75.2 °F - 73.4 °F 94% 30.01 in 10.0 mi South 8.1 mph - N/A   Overcast
2:15 AM 75.2 °F - 73.4 °F 94% 30.01 in 10.0 mi South 8.1 mph - N/A   Overcast
2:35 AM 75.2 °F - 73.4 °F 94% 30.02 in 10.0 mi SSW 6.9 mph - N/A   Overcast
2:55 AM 75.2 °F - 73.4 °F 94% 30.02 in 10.0 mi SSW 9.2 mph - N/A   Overcast
3:15 AM 77.0 °F - 73.4 °F 89% 30.02 in 10.0 mi SSW 8.1 mph - N/A   Overcast
3:35 AM 77.0 °F - 73.4 °F 89% 30.03 in 10.0 mi SSW 6.9 mph - N/A   Overcast
3:55 AM 75.2 °F - 73.4 °F 94% 30.02 in 10.0 mi SSW 5.8 mph - N/A   Overcast
4:15 AM 75.2 °F - 73.4 °F 94% 30.02 in 10.0 mi South 5.8 mph - N/A   Overcast
4:35 AM 75.2 °F - 73.4 °F 94% 30.03 in 10.0 mi South 4.6 mph - N/A   Overcast
4:55 AM 75.2 °F - 73.4 °F 94% 30.03 in 10.0 mi South 4.6 mph - N/A   Scattered Clouds
5:15 AM 75.2 °F - 73.4 °F 94% 30.03 in 7.0 mi South 5.8 mph - N/A   Scattered Clouds
5:35 AM 75.2 °F - 73.4 °F 94% 30.04 in 7.0 mi South 3.5 mph - N/A   Clear
5:55 AM 73.4 °F - 73.4 °F 100% 30.05 in 7.0 mi SSW 3.5 mph - N/A   Clear
6:15 AM 73.4 °F - 73.4 °F 100% 30.05 in 5.0 mi Calm Calm - N/A   Clear
6:35 AM 73.4 °F - 71.6 °F 94% 30.06 in 3.0 mi Calm Calm - N/A   Clear
6:55 AM 73.4 °F - 71.6 °F 94% 30.07 in 3.0 mi Calm Calm - N/A   Scattered Clouds
7:15 AM 73.4 °F - 71.6 °F 94% 30.07 in 3.0 mi Calm Calm - N/A   Scattered Clouds
7:35 AM 73.4 °F - 71.6 °F 94% 30.07 in 3.0 mi Calm Calm - N/A   Scattered Clouds
7:55 AM 73.4 °F - 73.4 °F 100% 30.08 in 4.0 mi Calm Calm - N/A   Scattered Clouds
8:15 AM 75.2 °F - 73.4 °F 94% 30.09 in 5.0 mi South 4.6 mph - N/A   Mostly Cloudy
8:35 AM 77.0 °F - 75.2 °F 94% 30.09 in 7.0 mi SSW 5.8 mph - N/A   Mostly Cloudy
8:55 AM 77.0 °F - 75.2 °F 94% 30.10 in 10.0 mi SSW 5.8 mph - N/A   Scattered Clouds
9:15 AM 78.8 °F - 75.2 °F 89% 30.10 in 10.0 mi SSW 5.8 mph - N/A   Scattered Clouds
9:35 AM 78.8 °F - 75.2 °F 89% 30.11 in 10.0 mi SW 4.6 mph - N/A   Scattered Clouds
9:55 AM 78.8 °F - 75.2 °F 89% 30.11 in 10.0 mi SSW 5.8 mph - N/A   Scattered Clouds
10:15 AM 78.8 °F - 75.2 °F 89% 30.12 in 10.0 mi South 5.8 mph - N/A   Mostly Cloudy
10:35 AM 80.6 °F 86.2 °F 75.2 °F 84% 30.12 in 10.0 mi SSW 6.9 mph - N/A   Mostly Cloudy
10:55 AM 82.4 °F 89.5 °F 75.2 °F 79% 30.12 in 10.0 mi SW 5.8 mph - N/A   Mostly Cloudy
11:15 AM 82.4 °F 89.5 °F 75.2 °F 79% 30.11 in 10.0 mi SW 4.6 mph - N/A   Mostly Cloudy
11:35 AM 82.4 °F 89.5 °F 75.2 °F 79% 30.11 in 7.0 mi SSW 6.9 mph - N/A   Scattered Clouds
11:55 AM 82.4 °F 89.5 °F 75.2 °F 79% 30.11 in 5.0 mi SW 4.6 mph - N/A   Haze
12:15 PM 82.4 °F 89.5 °F 75.2 °F 79% 30.11 in 10.0 mi SSW 3.5 mph - N/A   Scattered Clouds
12:35 PM 84.2 °F 92.3 °F 75.2 °F 74% 30.11 in 7.0 mi SSW 6.9 mph - N/A   Scattered Clouds
12:55 PM 84.2 °F 90.9 °F 73.4 °F 70% 30.11 in 7.0 mi SW 5.8 mph - N/A   Scattered Clouds
1:15 PM 84.2 °F 90.9 °F 73.4 °F 70% 30.10 in 7.0 mi SW 4.6 mph - N/A   Scattered Clouds
1:55 PM 84.2 °F 90.9 °F 73.4 °F 70% 30.09 in 10.0 mi SSW 5.8 mph - N/A   Mostly Cloudy
2:15 PM 84.2 °F 90.9 °F 73.4 °F 70% 30.08 in 10.0 mi Calm Calm - N/A   Mostly Cloudy
2:35 PM 86.0 °F 93.4 °F 73.4 °F 66% 30.08 in 7.0 mi SW 3.5 mph - N/A   Mostly Cloudy
2:55 PM 86.0 °F 93.4 °F 73.4 °F 66% 30.08 in 7.0 mi South 3.5 mph - N/A   Scattered Clouds
3:15 PM 86.0 °F 93.4 °F 73.4 °F 66% 30.08 in 7.0 mi WSW 5.8 mph - N/A   Scattered Clouds
3:35 PM 86.0 °F 93.4 °F 73.4 °F 66% 30.08 in 7.0 mi SSW 4.6 mph - N/A   Scattered Clouds
3:55 PM 87.8 °F 95.6 °F 73.4 °F 62% 30.08 in 10.0 mi Calm Calm - N/A   Scattered Clouds
4:15 PM 84.2 °F 89.6 °F 71.6 °F 66% 30.08 in 7.0 mi South 4.6 mph - N/A   Scattered Clouds
4:35 PM 84.2 °F 90.9 °F 73.4 °F 70% 30.08 in 7.0 mi SW 3.5 mph - N/A   Scattered Clouds
4:55 PM 80.6 °F 85.4 °F 73.4 °F 79% 30.09 in 5.0 mi SW 6.9 mph - N/A Rain Light Rain
5:15 PM 78.8 °F - 73.4 °F 83% 30.08 in 7.0 mi Calm Calm - N/A   Overcast
5:35 PM 78.8 °F - 73.4 °F 83% 30.09 in 10.0 mi Calm Calm - N/A   Scattered Clouds
5:55 PM 78.8 °F - 73.4 °F 83% 30.10 in 10.0 mi Calm Calm - N/A   Scattered Clouds
6:15 PM 77.0 °F - 73.4 °F 89% 30.11 in 10.0 mi Calm Calm - 0.01 in Rain Light Rain
6:35 PM 75.2 °F - 73.4 °F 94% 30.11 in 10.0 mi Calm Calm - 0.01 in   Mostly Cloudy
6:55 PM 75.2 °F - 75.2 °F 100% 30.11 in 7.0 mi Calm Calm - N/A   Overcast
7:15 PM 75.2 °F - 73.4 °F 94% 30.11 in 10.0 mi Calm Calm - N/A   Mostly Cloudy
7:35 PM 75.2 °F - 73.4 °F 94% 30.11 in 7.0 mi East 3.5 mph - N/A   Scattered Clouds
7:55 PM 75.2 °F - 73.4 °F 94% 30.11 in 10.0 mi ESE 3.5 mph - N/A   Clear
8:15 PM 75.2 °F - 73.4 °F 94% 30.12 in 10.0 mi Calm Calm - N/A   Clear
8:35 PM 75.2 °F - 73.4 °F 94% 30.13 in 10.0 mi Calm Calm - N/A   Clear
8:55 PM 75.2 °F - 73.4 °F 94% 30.13 in 10.0 mi SSE 3.5 mph - N/A   Clear
9:15 PM 75.2 °F - 73.4 °F 94% 30.14 in 10.0 mi SSE 4.6 mph - N/A   Clear
9:35 PM 75.2 °F - 73.4 °F 94% 30.14 in 10.0 mi South 3.5 mph - N/A   Clear
9:55 PM 75.2 °F - 73.4 °F 94% 30.14 in 10.0 mi South 3.5 mph - N/A   Clear
10:15 PM 75.2 °F - 73.4 °F 94% 30.14 in 10.0 mi South 3.5 mph - N/A   Clear
10:35 PM 75.2 °F - 73.4 °F 94% 30.14 in 10.0 mi South 3.5 mph - N/A   Clear
10:55 PM 75.2 °F - 73.4 °F 94% 30.15 in 10.0 mi Calm Calm - N/A   Clear
11:15 PM 75.2 °F - 73.4 °F 94% 30.15 in 10.0 mi Calm Calm - N/A   Clear
11:35 PM 75.2 °F - 73.4 °F 94% 30.15 in 10.0 mi Calm Calm - N/A   Clear
11:55 PM 75.2 °F - 73.4 °F 94% 30.15 in 7.0 mi Calm Calm - N/A   Clear